[[{"header":{"parameterUnit":"m.s-1","parameterCategory":1,"la1":30.2991,"la2":30.254,"lo1":-89.0895,"lo2":-89.0444,"dy":0.0017,"dx":0.0017,"nx":28,"ny":28,"refTime":"2025-08-25T09:00:00:Z","depth":0,"parameterNumber":2,"parameterNumberName":"U-component_of_WINDS"},"data":[0,0,0,0,0,0,0,0,0,0,0,0,0,0,0,0,0,0,0,0,0,0,0,0,0,0,0,0,0,0,0,0,0,0,0,0,0,0,0,0,0,0,0,0,0,0,0,0,0,0,0,0,0,0,0,0,0,0,-1.0411,-1.0411,0,-1.0398,-1.0398,-1.0398,-1.0355,-1.0354,-1.0353,-1.0352,-1.034,-1.0341,-1.0342,0,0,0,0,0,0,0,0,0,0,0,0,0,-1.0399,-1.04,-1.0411,-1.0411,-1.041,-1.0398,-1.0398,-1.0398,-1.0355,-1.0354,-1.0353,-1.0352,-1.034,-1.0341,-1.0342,0,0,0,0,0,0,0,0,0,0,0,0,0,-1.0397,-1.04,-1.0411,-1.0388,-1.0386,-1.0398,-1.0398,-1.0398,-1.0355,-1.0354,-1.0353,-1.0351,-1.034,-1.0341,-1.0342,-1.0376,0,0,-1.0344,-1.0345,0,0,0,0,0,0,0,0,-1.0397,-1.0398,-1.0391,-1.0389,-1.0387,-1.0377,-1.0389,-1.039,-1.0356,-1.0367,-1.0352,-1.0351,-1.0354,-1.0353,-1.0354,-1.0375,-1.0375,-1.0344,-1.0345,-1.0345,-1.0346,0,0,0,0,0,0,0,-1.0398,-1.0398,-1.0406,-1.0391,-1.0389,-1.0378,-1.0376,-1.0389,-1.0369,-1.0366,-1.0363,-1.0362,-1.0352,-1.0353,-1.0354,-1.0375,-1.0344,-1.0345,-1.0346,-1.0346,-1.0423,-1.0424,0,0,0,0,0,0,-1.0401,-1.0398,-1.0406,-1.0405,-1.0389,-1.038,-1.0378,-1.0381,-1.0368,-1.0365,-1.0363,-1.036,-1.0353,-1.0353,-1.0353,-1.0392,-1.0345,-1.0346,-1.0347,-1.0421,-1.0423,-1.0425,0,0,0,0,0,0,-1.0401,-1.0402,-1.0407,-1.0401,-1.0401,-1.0381,-1.0386,-1.0382,-1.0383,-1.0366,-1.0362,-1.0368,-1.0351,-1.0352,-1.037,-1.0391,-1.0346,-1.0347,-1.042,-1.0422,-1.0424,-1.047,0,0,0,0,0,0,-1.0401,-1.0402,-1.0415,-1.0402,-1.0401,-1.0424,-1.0387,-1.0383,-1.0384,-1.038,-1.037,-1.0367,-1.035,-1.0369,-1.0371,-1.0391,-1.0348,-1.0418,-1.0421,-1.0423,-1.0467,-1.0474,-1.048,0,0,0,0,0,-1.04,-1.0429,-1.0416,-1.0417,-1.0417,-1.0425,-1.0425,-1.0406,-1.0386,-1.0399,-1.0388,-1.0367,-1.0388,-1.0372,-1.0373,-1.0394,-1.0416,-1.042,-1.0423,-1.0464,-1.0473,-1.048,0,0,0,0,0,0,-1.0445,-1.0426,-1.0412,-1.0437,-1.0433,-1.0418,-1.0433,-1.0415,-1.0417,-1.0413,-1.0389,-1.0387,-1.0409,-1.0403,-1.0385,-1.0426,-1.0399,-1.0403,-1.0429,-1.0437,-1.0444,-1.0445,-1.0349,0,0,0,0,0,-1.0458,-1.0466,-1.045,-1.0473,-1.0472,-1.0453,-1.0456,-1.0441,-1.0437,-1.0435,-1.0425,-1.0422,-1.0428,-1.0432,-1.0437,-1.0466,-1.0463,-1.0481,-1.0488,-1.0493,-1.0497,-1.0512,-1.0519,-1.0436,-1.0436,-1.0436,0,0,-1.0484,-1.0475,-1.0482,-1.0482,-1.0477,-1.0487,-1.0452,-1.0464,-1.047,-1.0437,-1.0453,-1.0447,-1.0441,-1.0465,-1.0475,-1.0461,-1.0519,-1.0497,-1.0502,-1.0503,-1.0516,-1.0524,-1.0531,-1.0438,-1.0438,-1.0438,0,0,-1.0537,-1.0531,-1.055,-1.0546,-1.0539,-1.0526,-1.0531,-1.0519,-1.0513,-1.0529,-1.0504,-1.0512,-1.0523,-1.052,-1.052,-1.0571,-1.0552,-1.0574,-1.0608,-1.0623,-1.0629,-1.0635,-1.0653,-1.066,-1.0577,-1.0578,-1.0578,0,-1.0571,-1.0584,-1.0562,-1.0575,-1.0576,-1.0545,-1.0564,-1.0561,-1.0557,-1.0558,-1.0542,-1.0555,-1.0549,-1.0572,-1.0584,-1.0585,-1.059,-1.0575,-1.063,-1.0635,-1.064,-1.0658,-1.0665,-1.058,-1.058,-1.058,-1.0579,0,-1.0626,-1.0635,-1.0651,-1.0647,-1.0649,-1.0666,-1.0646,-1.0651,-1.0636,-1.0625,-1.0643,-1.0635,-1.0637,-1.0641,-1.0627,-1.0662,-1.0653,-1.0634,-1.0606,-1.0651,-1.0667,-1.0674,-1.0584,-1.0583,-1.0582,-1.0582,0,0,-1.0707,-1.069,-1.0696,-1.0694,-1.0684,-1.0691,-1.0706,-1.0707,-1.0712,-1.071,-1.0722,-1.0732,-1.0713,-1.0714,-1.0699,-1.0712,-1.0753,-1.0691,-1.069,-1.0702,-1.0791,-1.0806,-1.0814,-1.074,-1.0741,-1.0742,-1.0792,0,-1.0758,-1.0781,-1.0762,-1.0789,-1.0797,-1.0768,-1.0781,-1.0777,-1.0767,-1.0773,-1.0762,-1.0769,-1.0745,-1.0745,-1.0756,-1.0746,-1.0771,-1.0742,-1.0751,-1.0752,-1.0753,-1.0822,-1.0838,-1.0885,-1.0798,-1.0799,-1.08,0,-1.0819,-1.0819,-1.0848,-1.0835,-1.0838,-1.085,-1.085,-1.0856,-1.085,-1.0842,-1.0842,-1.0824,-1.0837,-1.081,-1.0829,-1.0809,-1.0812,-1.0807,-1.0809,-1.0809,-1.0779,-1.0825,-1.09,-1.0907,-1.0809,-1.0809,-1.0808,0,-1.0876,-1.0883,-1.0901,-1.0899,-1.0886,-1.0895,-1.089,-1.0882,-1.0885,-1.0885,-1.0886,-1.0888,-1.0889,-1.0891,-1.0874,-1.0855,-1.0895,-1.0866,-1.0889,-1.0889,-1.0898,-1.0898,-1.0975,-1.09,-1.09,-1.09,-1.09,0,-1.0934,-1.0953,-1.0926,-1.0937,-1.0956,-1.0934,-1.0954,-1.0946,-1.094,-1.0949,-1.0924,-1.0933,-1.0909,-1.0916,-1.0902,-1.092,-1.0921,-1.0915,-1.0911,-1.0917,-1.0918,-1.0919,-1.0915,-1.0902,-1.0901,-1.0901,-1.0901,0,-1.1001,-1.0984,-1.1001,-1.0986,-1.0983,-1.0998,-1.0986,-1.0996,-1.0984,-1.0996,-1.0997,-1.0979,-1.0986,-1.0968,-1.0973,-1.0963,-1.0989,-1.098,-1.0991,-1.0988,-1.1012,-1.101,-1.1092,-1.1102,-1.1021,-1.1022,-1.1022,0,-1.104,-1.1053,-1.104,-1.1044,-1.104,-1.1046,-1.1048,-1.1027,-1.103,-1.1024,-1.1035,-1.1039,-1.1041,-1.1053,-1.1041,-1.1044,-1.1034,-1.1063,-1.1035,-1.104,-1.1035,-1.1034,-1.1036,-1.1069,-1.107,-1.1071,-1.1071,0,-1.111,-1.11,-1.1104,-1.1105,-1.1107,-1.1107,-1.1105,-1.1109,-1.1086,-1.1091,-1.1097,-1.1099,-1.1103,-1.1107,-1.1107,-1.1102,-1.1083,-1.108,-1.1086,-1.1092,-1.1098,-1.1095,-1.1007,-1.1079,-1.1078,-1.1077,-1.1077,-1.1077,-1.1164,-1.1174,-1.1166,-1.1171,-1.1167,-1.1165,-1.1173,-1.1163,-1.1167,-1.1168,-1.1155,-1.1164,-1.1158,-1.1156,-1.1153,-1.1159,-1.1146,-1.1154,-1.1156,-1.1159,-1.1163,-1.1097,-1.1159,-1.1159,-1.1159,-1.1159,-1.1159,0,-1.1233,-1.1226,-1.1231,-1.1228,-1.1232,-1.1213,-1.1209,-1.1214,-1.1222,-1.1217,-1.122,-1.1227,-1.1231,-1.1219,-1.1221,-1.1229,-1.122,-1.1231,-1.123,-1.1229,-1.1174,-1.1169,-1.1237,-1.1237,-1.1237,-1.1237,-1.1237,-1.1237,-1.1269,-1.1286,-1.1276,-1.129,-1.1283,-1.1291,-1.1291,-1.1289,-1.1285,-1.1294,-1.1297,-1.1289,-1.1281,-1.1283,-1.1286,-1.1283,-1.1285,-1.1298,-1.1291,-1.1241,-1.1233,-1.1226,-1.1221,-1.1299,-1.1299,-1.1346,-1.1346,-1.1346]},{"header":{"parameterUnit":"m.s-1","parameterCategory":1,"la1":30.2991,"la2":30.254,"lo1":-89.0895,"lo2":-89.0444,"dy":0.0017,"dx":0.0017,"nx":28,"ny":28,"refTime":"2025-08-25T09:00:00:Z","depth":0,"parameterNumber":3,"parameterNumberName":"V-component_of_WINDS"},"data":[0,0,0,0,0,0,0,0,0,0,0,0,0,0,0,0,0,0,0,0,0,0,0,0,0,0,0,0,0,0,0,0,0,0,0,0,0,0,0,0,0,0,0,0,0,0,0,0,0,0,0,0,0,0,0,0,0,0,2.3504,2.3503,0,2.3497,2.3497,2.3496,2.3452,2.3451,2.345,2.3449,2.3442,2.3443,2.3444,0,0,0,0,0,0,0,0,0,0,0,0,0,2.3478,2.3479,2.3504,2.3503,2.3503,2.3497,2.3497,2.3496,2.3452,2.3451,2.345,2.3449,2.3442,2.3443,2.3444,0,0,0,0,0,0,0,0,0,0,0,0,0,2.3482,2.3479,2.3504,2.3481,2.3478,2.3497,2.3497,2.3496,2.3453,2.3451,2.345,2.3448,2.3442,2.3443,2.3444,2.3484,0,0,2.3448,2.3448,0,0,0,0,0,0,0,0,2.3482,2.3483,2.3484,2.3482,2.348,2.3474,2.3485,2.3492,2.3453,2.3463,2.3449,2.3447,2.3454,2.3454,2.3456,2.3483,2.3483,2.3448,2.3449,2.3449,2.3449,0,0,0,0,0,0,0,2.3482,2.3483,2.3501,2.3484,2.3482,2.3471,2.3469,2.3486,2.3467,2.3462,2.3458,2.3458,2.3452,2.3455,2.3456,2.3483,2.3448,2.3449,2.345,2.345,2.3541,2.3542,0,0,0,0,0,0,2.3485,2.3483,2.3501,2.3501,2.3477,2.3472,2.3471,2.3477,2.3467,2.3464,2.346,2.3456,2.3454,2.3454,2.3455,2.35,2.3449,2.345,2.3451,2.3539,2.3541,2.3543,0,0,0,0,0,0,2.3484,2.3487,2.3501,2.3491,2.3492,2.3474,2.3482,2.3478,2.3481,2.3465,2.3462,2.3466,2.3453,2.3454,2.3477,2.3499,2.3451,2.3452,2.3537,2.354,2.3542,2.359,0,0,0,0,0,0,2.3484,2.3487,2.3502,2.3492,2.3493,2.3523,2.3483,2.3479,2.3483,2.3478,2.347,2.3468,2.3452,2.3475,2.3478,2.35,2.3453,2.3535,2.3538,2.3541,2.3586,2.3594,2.36,0,0,0,0,0,2.3483,2.3516,2.3503,2.3505,2.3511,2.3524,2.3525,2.3506,2.3485,2.35,2.349,2.3468,2.3496,2.3478,2.3481,2.3503,2.3533,2.3537,2.3541,2.3583,2.3592,2.36,0,0,0,0,0,0,2.353,2.3514,2.35,2.353,2.3529,2.3517,2.3535,2.3516,2.3521,2.3516,2.3493,2.3491,2.3517,2.3513,2.3492,2.354,2.3511,2.3516,2.3542,2.3551,2.3557,2.3557,2.3454,0,0,0,0,0,2.3544,2.3555,2.3541,2.357,2.357,2.3553,2.3558,2.3543,2.3541,2.354,2.3532,2.353,2.3538,2.3545,2.3552,2.3586,2.3582,2.3603,2.361,2.3615,2.3619,2.3635,2.3643,2.3555,2.3555,2.3555,0,0,2.3572,2.3565,2.3574,2.3579,2.3576,2.3589,2.3552,2.3568,2.3576,2.3542,2.3563,2.3557,2.3553,2.3582,2.3594,2.3579,2.3643,2.362,2.3625,2.3625,2.364,2.3648,2.3656,2.3558,2.3557,2.3557,0,0,2.363,2.3627,2.3649,2.3647,2.3643,2.3631,2.3637,2.3628,2.3622,2.3643,2.3617,2.3627,2.3643,2.3641,2.3642,2.3699,2.3678,2.3702,2.3738,2.3754,2.3761,2.3767,2.3785,2.3793,2.3706,2.3706,2.3706,0,2.3666,2.3684,2.3663,2.368,2.3682,2.3652,2.3674,2.3673,2.3671,2.3674,2.3657,2.3675,2.3671,2.3697,2.3711,2.3714,2.3718,2.3702,2.3761,2.3767,2.3773,2.379,2.3797,2.3709,2.3709,2.3708,2.3708,0,2.3728,2.3741,2.3759,2.3758,2.3763,2.3782,2.3764,2.3771,2.3756,2.3746,2.3766,2.376,2.3765,2.377,2.3756,2.3795,2.3785,2.3766,2.3735,2.3784,2.38,2.3807,2.3713,2.3712,2.3711,2.371,0,0,2.3815,2.3801,2.3808,2.3807,2.38,2.3809,2.3827,2.3831,2.3837,2.3837,2.3851,2.3864,2.3846,2.3847,2.3832,2.3847,2.389,2.3825,2.3824,2.3836,2.393,2.3944,2.3952,2.3877,2.3878,2.3879,2.393,0,2.3869,2.3898,2.3879,2.3911,2.3922,2.3893,2.3908,2.3905,2.3896,2.3904,2.3894,2.3903,2.3879,2.3879,2.3892,2.3882,2.3909,2.3879,2.3888,2.3889,2.3888,2.3961,2.3976,2.4024,2.3936,2.3938,2.3938,0,2.3936,2.3938,2.3971,2.3961,2.3964,2.3978,2.398,2.3988,2.3984,2.3977,2.3978,2.396,2.3976,2.3947,2.3968,2.3948,2.3951,2.3947,2.3948,2.3947,2.3915,2.396,2.4039,2.4045,2.3948,2.3947,2.3947,0,2.3994,2.4005,2.4026,2.4026,2.4015,2.4025,2.4021,2.4015,2.4019,2.4021,2.4022,2.4026,2.4028,2.4032,2.4014,2.3996,2.4037,2.4008,2.4031,2.4031,2.4039,2.4039,2.4118,2.4044,2.4044,2.4044,2.4044,0,2.4055,2.4076,2.4051,2.4064,2.4086,2.4064,2.4087,2.408,2.4075,2.4085,2.4061,2.4071,2.4049,2.4057,2.4044,2.4062,2.4064,2.4058,2.4053,2.4059,2.4059,2.4059,2.4055,2.4046,2.4046,2.4045,2.4045,0,2.4123,2.4108,2.4127,2.4115,2.4113,2.4129,2.4119,2.413,2.4119,2.4132,2.4134,2.4118,2.4125,2.4109,2.4115,2.4106,2.4132,2.4124,2.4133,2.413,2.4153,2.415,2.4233,2.4243,2.4165,2.4166,2.4166,0,2.4163,2.4178,2.4167,2.4172,2.4169,2.4177,2.418,2.416,2.4164,2.4161,2.4172,2.4177,2.4181,2.4194,2.4183,2.4187,2.4177,2.4206,2.4178,2.4182,2.4175,2.4174,2.4175,2.4211,2.4212,2.4213,2.4214,0,2.4234,2.4225,2.423,2.4232,2.4237,2.4238,2.4237,2.4242,2.4221,2.4227,2.4234,2.4237,2.4242,2.4247,2.4249,2.4244,2.4225,2.4223,2.4228,2.4233,2.4237,2.4233,2.4147,2.4221,2.422,2.422,2.4219,2.4219,2.4287,2.4299,2.4292,2.4299,2.4296,2.4295,2.4304,2.4295,2.4301,2.4303,2.4291,2.4301,2.4296,2.4295,2.4293,2.43,2.4287,2.4295,2.4297,2.4298,2.4301,2.4237,2.43,2.43,2.43,2.43,2.43,0,2.4356,2.435,2.4356,2.4355,2.436,2.4342,2.434,2.4345,2.4354,2.4351,2.4354,2.4362,2.4367,2.4356,2.4359,2.4367,2.4358,2.4368,2.4367,2.4366,2.4314,2.4308,2.4375,2.4375,2.4375,2.4375,2.4375,2.4375,2.4392,2.4409,2.44,2.4416,2.441,2.4419,2.4419,2.4418,2.4415,2.4425,2.4429,2.4422,2.4415,2.4418,2.4421,2.4418,2.4419,2.4432,2.4426,2.4377,2.437,2.4362,2.4357,2.4433,2.4433,2.4477,2.4477,2.4478]}]]